Location: Village de las Huertas
(35.3014°N, 106.4095°W)
Time: 09:06:48
(UTC+00:00)

Cosmos 2369 - Pass Details

Date: 29 October 2020
Orbit: 841 x 854 km, 71.0° (Epoch: 05 December)

Event Time Altitude Azimuth Distance (km) Brightness Sun altitude
Exits shadow 12:08:33 10° 327° (NNW) 2,502 5.8 -16.1°
Reaches altitude 10° 12:08:39 10° 326° (NW) 2,465 5.8 -16.1°
Maximum altitude 12:14:02 47° 254° (WSW) 1,103 3.9 -15.0°
Drops below altitude 10° 12:19:23 10° 182° (S) 2,447 6.2 -13.9°
Sets 12:21:54 0° 176° (S) 3,378 7.0 -13.4°
